Satellite-Ground Cal/Val Region Overpasses Predictions

Prediction of Satellite NPP Overpassing Cal/Val Region: PacNW

Region Location: (Latitude: 10.00, Longitude: 139.50) to (Latitude: 22.70, Longitude: 165.60).

Table of predicted overpasses for the next 14.0 days since TLE Epoch: 1/21/2013
Interval Starting Time Starting Location Ending Time Ending Location
1 01/21/2013 15:09:05 ( 22.70, 157.20) 01/21/2013 15:12:41 ( 10.02, 154.19)
2 01/22/2013 02:18:12 ( 10.05, 164.71) 01/22/2013 02:21:47 ( 22.67, 161.70)
3 01/22/2013 14:50:05 ( 22.70, 161.96) 01/22/2013 14:53:41 ( 10.02, 158.94)
4 01/23/2013 03:40:42 ( 10.05, 144.08) 01/23/2013 03:44:17 ( 22.68, 141.08)
5 01/23/2013 14:32:22 ( 18.12, 165.59) 01/23/2013 14:34:40 ( 10.01, 163.69)
6 01/23/2013 16:12:34 ( 22.70, 141.33) 01/23/2013 16:14:42 ( 15.18, 139.51)
7 01/24/2013 03:21:41 ( 10.06, 148.84) 01/24/2013 03:25:16 ( 22.68, 145.83)
8 01/24/2013 15:53:34 ( 22.69, 146.09) 01/24/2013 15:57:10 ( 10.01, 143.07)
9 01/25/2013 03:02:41 ( 10.06, 153.59) 01/25/2013 03:06:16 ( 22.68, 150.59)
10 01/25/2013 15:34:33 ( 22.69, 150.84) 01/25/2013 15:38:09 ( 10.01, 147.82)
11 01/26/2013 02:43:40 ( 10.06, 158.34) 01/26/2013 02:47:15 ( 22.68, 155.34)
12 01/26/2013 15:15:33 ( 22.69, 155.59) 01/26/2013 15:19:09 ( 10.01, 152.57)
13 01/27/2013 02:24:39 ( 10.00, 163.11) 01/27/2013 02:28:15 ( 22.68, 160.09)
14 01/27/2013 14:56:33 ( 22.69, 160.34) 01/27/2013 15:00:09 ( 10.01, 157.33)
15 01/28/2013 02:08:22 ( 19.63, 165.60) 01/28/2013 02:09:14 ( 22.68, 164.84)
16 01/28/2013 03:47:08 ( 10.00, 142.49) 01/28/2013 03:50:41 ( 22.51, 139.51)
17 01/28/2013 14:37:32 ( 22.69, 165.10) 01/28/2013 14:41:08 ( 10.01, 162.08)
18 01/28/2013 16:19:02 ( 22.69, 139.72) 01/28/2013 16:19:17 ( 21.81, 139.50)
19 01/29/2013 03:28:08 ( 10.01, 147.24) 01/29/2013 03:31:44 ( 22.69, 144.22)
20 01/29/2013 16:00:02 ( 22.68, 144.47) 01/29/2013 16:03:38 ( 10.00, 141.46)
21 01/30/2013 03:09:07 ( 10.01, 151.99) 01/30/2013 03:12:43 ( 22.69, 148.97)
22 01/30/2013 15:41:01 ( 22.68, 149.23) 01/30/2013 15:44:37 ( 10.00, 146.21)
23
